| time (UTC) | temp F | wind direction | speed MPH | gust MPH | rain 1hr in | rain 24hr in | rain mn in | humidity % | barometer mb |
| 20260504231531 | 73 | 71 | 1.0 | 4.0 | 0.00 | 0.00 | 0.00 | 63 | 1015.6 |
| 20260504230032 | 73 | 55 | 3.0 | 9.0 | 0.00 | 0.00 | 0.00 | 62 | 1015.8 |
| 20260504224531 | 74 | 51 | 3.0 | 9.0 | 0.00 | 0.00 | 0.00 | 62 | 1015.6 |
| 20260504223031 | 75 | 119 | 3.0 | 10.0 | 0.00 | 0.00 | 0.00 | 61 | 1015.7 |
| 20260504221530 | 76 | 78 | 4.0 | 10.0 | 0.00 | 0.00 | 0.00 | 61 | 1015.6 |
| 20260504220043 | 75 | 62 | 4.0 | 13.0 | 0.00 | 0.00 | 0.00 | 61 | 1015.6 |
| 20260504214535 | 76 | 58 | 4.0 | 11.0 | 0.00 | 0.00 | 0.00 | 60 | 1015.7 |
| 20260504213045 | 76 | 74 | 2.0 | 11.0 | 0.00 | 0.00 | 0.00 | 60 | 1015.6 |
| 20260504211537 | 77 | 51 | 3.0 | 11.0 | 0.00 | 0.00 | 0.00 | 59 | 1015.7 |
| 20260504210029 | 76 | 111 | 3.0 | 8.0 | 0.00 | 0.00 | 0.00 | 60 | 1015.7 |
| 20260504204539 | 76 | 80 | 3.0 | 11.0 | 0.00 | 0.00 | 0.00 | 60 | 1015.8 |
| 20260504203034 | 77 | 79 | 3.0 | 12.0 | 0.00 | 0.00 | 0.00 | 59 | 1016.1 |
| 20260504201529 | 77 | 114 | 3.0 | 11.0 | 0.00 | 0.00 | 0.00 | 60 | 1016.2 |
| 20260504200033 | 77 | 107 | 3.0 | 10.0 | 0.00 | 0.00 | 0.00 | 57 | 1016.3 |
| 20260504194532 | 77 | 69 | 5.0 | 14.0 | 0.00 | 0.00 | 0.00 | 58 | 1016.3 |
| 20260504193031 | 77 | 69 | 3.0 | 15.0 | 0.00 | 0.00 | 0.00 | 57 | 1016.4 |
| 20260504191535 | 78 | 33 | 4.0 | 12.0 | 0.00 | 0.00 | 0.00 | 55 | 1016.6 |
| 20260504190033 | 78 | 55 | 5.0 | 13.0 | 0.00 | 0.00 | 0.00 | 57 | 1016.9 |
| 20260504184529 | 78 | 71 | 3.0 | 11.0 | 0.00 | 0.00 | 0.00 | 57 | 1017.0 |
| 20260504183030 | 78 | 55 | 4.0 | 11.0 | 0.00 | 0.00 | 0.00 | 56 | 1017.2 |
| 20260504181534 | 78 | 74 | 5.0 | 11.0 | 0.00 | 0.00 | 0.00 | 56 | 1017.3 |
| 20260504180043 | 78 | 98 | 3.0 | 10.0 | 0.00 | 0.00 | 0.00 | 59 | 1017.3 |
| 20260504174532 | 78 | 74 | 4.0 | 14.0 | 0.00 | 0.00 | 0.00 | 56 | 1017.3 |
| 20260504173032 | 79 | 69 | 4.0 | 13.0 | 0.00 | 0.00 | 0.00 | 55 | 1017.4 |
| 20260504171529 | 80 | 59 | 2.0 | 15.0 | 0.00 | 0.00 | 0.00 | 56 | 1017.5 |
| 20260504081533 | 68 | 0 | 0.0 | 2.0 | 0.00 | 0.02 | 0.00 | 76 | 1015.8 |
| 20260504044536 | 70 | 0 | 0.0 | 2.0 | 0.00 | 0.05 | 0.00 | 72 | 1016.9 |
| 20260504043041 | 70 | 0 | 0.0 | 2.0 | 0.00 | 0.05 | 0.00 | 72 | 1017.1 |
| 20260504041530 | 70 | 0 | 0.0 | 2.0 | 0.00 | 0.05 | 0.00 | 71 | 1017.0 |
| 20260504040035 | 70 | 0 | 0.0 | 2.0 | 0.00 | 0.05 | 0.00 | 71 | 1017.3 |
| 20260504034536 | 70 | 0 | 0.0 | 2.0 | 0.00 | 0.05 | 0.05 | 70 | 1017.5 |
| 20260504033032 | 70 | 0 | 0.0 | 3.0 | 0.00 | 0.05 | 0.05 | 70 | 1017.3 |
| 20260504031530 | 70 | 0 | 0.0 | 2.0 | 0.00 | 0.05 | 0.05 | 69 | 1017.2 |
| 20260504030029 | 70 | 79 | 0.0 | 3.0 | 0.00 | 0.05 | 0.05 | 69 | 1017.3 |
| 20260504024532 | 70 | 0 | 0.0 | 3.0 | 0.00 | 0.05 | 0.05 | 69 | 1017.1 |
| 20260504023030 | 70 | 0 | 0.0 | 5.0 | 0.00 | 0.05 | 0.05 | 68 | 1017.1 |
| 20260504021535 | 70 | 0 | 1.0 | 4.0 | 0.00 | 0.05 | 0.05 | 69 | 1017.2 |
| 20260504020037 | 71 | 0 | 0.0 | 2.0 | 0.00 | 0.05 | 0.05 | 69 | 1017.2 |
| 20260504014537 | 71 | 0 | 1.0 | 3.0 | 0.00 | 0.05 | 0.05 | 67 | 1017.2 |
| 20260504013031 | 71 | 0 | 1.0 | 3.0 | 0.00 | 0.05 | 0.05 | 68 | 1017.3 |
| 20260504011532 | 71 | 348 | 1.0 | 3.0 | 0.00 | 0.05 | 0.05 | 68 | 1017.3 |
| 20260504010032 | 71 | 0 | 0.0 | 5.0 | 0.00 | 0.05 | 0.05 | 68 | 1017.1 |
| 20260504004534 | 71 | 31 | 1.0 | 5.0 | 0.00 | 0.05 | 0.05 | 68 | 1016.7 |
| 20260504003029 | 72 | 0 | 0.0 | 9.0 | 0.00 | 0.05 | 0.05 | 68 | 1016.7 |
| 20260504001532 | 72 | 69 | 1.0 | 5.0 | 0.00 | 0.05 | 0.05 | 67 | 1016.5 |
| 20260504000029 | 72 | 18 | 1.0 | 4.0 | 0.00 | 0.05 | 0.05 | 67 | 1016.4 |
| 20260503234532 | 72 | 28 | 1.0 | 3.0 | 0.00 | 0.05 | 0.05 | 66 | 1016.3 |
| 20260503233029 | 72 | 46 | 1.0 | 5.0 | 0.00 | 0.05 | 0.05 | 66 | 1016.2 |